User: anonymous   Login
Location: Batang Balui
(2.7000°N, 113.7833°E)
Time: 06:33:30
(UTC+00:00)
Language:

Delta 2 Rocket - Orbit

View from above orbital plane
View from above orbital plane
View from above satellite
View from above satellite

Ground track
Ground track

The orbit data is extracted from the following two-line orbital elements,

1 20453U 90008B   22148.05644417  .00010056  00000-0  52756-3 0  9999
2 20453  35.6245  24.2988 0265186 119.5314 243.2117 14.89618164716862
Epoch (UTC): 28 May 2022 01:21:16
Eccentricity: 0.0265186
inclination: 35.6245°
perigee height: 414 km
apogee height: 784 km
right ascension of ascending node: 24.2988°
argument of perigee: 119.5314°
revolutions per day: 14.89618164
mean anomaly at epoch: 243.2117°
orbit number at epoch: 71686

The dashed part of the orbit path shows where the satellite is in the earth's shadow,  

DLR